Astoria, OR

4:15 AM PST on February 21, 2018 (GMT -0800)
Astoria Regional

Weather History for KAST - December, 2012

Change the Weather History Date:

Thursday, December 27, 2012

  Actual Average Record
Temperature  
Mean Temperature 44 °F 42 °F  
Max Temperature 48 °F 48 °F 58 °F (1979)
Min Temperature 39 °F 37 °F 23 °F (1985)
Degree Days  
Heating Degree Days 21 23  
Month to date heating degree days 551 607  
Since 1 July heating degree days 1966 2020  
Cooling Degree Days 0 0  
Month to date cooling degree days 0 0  
Year to date cooling degree days 25 12  
Moisture  
Dew Point 40 °F    
Average Humidity 86    
Maximum Humidity 96    
Minimum Humidity 76    
Precipitation  
Precipitation T in 0.32 in 2.91 in (1937)
Month to date precipitation 14.35 8.66  
Year to date precipitation 91.01 66.03  
Snow  
Snow 0.00 in - - ()
Snow Depth 0.00 in    
Sea Level Pressure  
Sea Level Pressure 30.11 in    
Wind  
Wind Speed 5 mph (SE)    
Max Wind Speed 12 mph    
Max Gust Speed 15 mph    
Visibility 10 miles    
Events Rain    
T = Trace of Precipitation, MM = Missing Value Source: NWS Daily Summary

Daily Weather History Graph

Daily Weather History Graph

Search for Another Location

Airport or City:

Trip Planner

Search our weather history database for the weather conditions in past years. The results will help you decide how hot, cold, wet, or windy it might be!

Date:

Astronomy

Dec. 27, 2012 Rise Set
Actual Time 7:57 AM PST 4:36 PM PST
Civil Twilight 7:22 AM PST 5:11 PM PST
Nautical Twilight 6:44 AM PST 5:49 PM PST
Astronomical Twilight 6:08 AM PST 6:25 PM PST
Moon 4:26 PM PST (12/27) 7:10 AM PST (12/27)
Length of Visible Light 9h 48m
Length of Day
8h 38m
Full, 100% of the Moon is Illuminated
Dec 27
Full
Dec 28
Full
Jan 4
Last Quarter
Jan 11
New
Jan 18
First Quarter

Hourly Weather History & Observations

Time (PST) Temp. Windchill Dew Point Humidity Pressure Visibility Wind Dir Wind Speed Gust Speed Precip Events Conditions
12:55 AM 44.1 °F - 39.9 °F 85% 30.01 in 10.0 mi Calm Calm - 0.00 in   Overcast
1:55 AM 44.1 °F 42.5 °F 39.0 °F 82% 30.04 in 10.0 mi West 3.5 mph - N/A   Overcast
2:55 AM 45.0 °F 40.6 °F 37.9 °F 76% 30.05 in 10.0 mi West 8.1 mph - 0.00 in   Overcast
3:55 AM 44.1 °F 40.8 °F 37.9 °F 79% 30.06 in 10.0 mi West 5.8 mph - 0.00 in   Overcast
4:55 AM 43.0 °F 41.3 °F 37.9 °F 82% 30.06 in 10.0 mi SSW 3.5 mph - 0.00 in   Overcast
5:55 AM 43.0 °F 40.3 °F 37.9 °F 82% 30.08 in 10.0 mi WSW 4.6 mph - N/A   Overcast
6:55 AM 43.0 °F 41.3 °F 37.9 °F 82% 30.09 in 10.0 mi SSW 3.5 mph - N/A   Overcast
7:55 AM 39.9 °F - 37.9 °F 93% 30.11 in 9.0 mi Calm Calm - N/A   Mostly Cloudy
8:55 AM 39.9 °F 37.8 °F 37.9 °F 93% 30.11 in 10.0 mi SE 3.5 mph - N/A   Partly Cloudy
9:55 AM 41.0 °F 38.0 °F 37.9 °F 89% 30.14 in 10.0 mi South 4.6 mph - N/A   Mostly Cloudy
10:55 AM 44.1 °F 40.1 °F 39.9 °F 85% 30.15 in 10.0 mi SE 6.9 mph - N/A   Clear
11:55 AM 48.2 °F - 42.8 °F 82% 30.14 in 10.0 mi SE 8.1 mph - N/A   Overcast
12:55 PM 46.9 °F - 41.0 °F 80% 30.14 in 9.0 mi Calm Calm - 0.00 in Rain Light Rain
1:55 PM 48.0 °F - 41.0 °F 77% 30.14 in 10.0 mi SW 6.9 mph - 0.00 in Rain Light Rain
2:55 PM 46.0 °F 41.9 °F 39.9 °F 79% 30.14 in 10.0 mi South 8.1 mph - 0.00 in   Overcast
3:03 PM 46.4 °F 42.4 °F 39.2 °F 76% 30.14 in 10.0 mi South 8.1 mph - N/A   Overcast
3:55 PM 46.0 °F 44.8 °F 39.9 °F 79% 30.14 in 10.0 mi SSE 3.5 mph - N/A   Overcast
4:15 PM 46.4 °F - 41.0 °F 81% 30.14 in 10.0 mi Calm Calm - N/A   Overcast
4:23 PM 46.4 °F 45.2 °F 41.0 °F 81% 30.14 in 10.0 mi East 3.5 mph - N/A   Overcast
4:55 PM 45.0 °F 43.5 °F 41.0 °F 86% 30.14 in 10.0 mi East 3.5 mph - N/A   Overcast
5:31 PM 44.6 °F 42.2 °F 41.0 °F 87% 30.14 in 10.0 mi ESE 4.6 mph - N/A   Overcast
5:55 PM 44.1 °F 42.5 °F 41.0 °F 89% 30.13 in 10.0 mi East 3.5 mph - N/A   Overcast
6:10 PM 44.6 °F - 41.0 °F 87% 30.13 in 10.0 mi Calm Calm - N/A   Overcast
6:42 PM 44.6 °F 42.2 °F 41.0 °F 87% 30.13 in 9.0 mi East 4.6 mph - 0.00 in   Overcast
6:55 PM 44.1 °F 40.8 °F 41.0 °F 89% 30.13 in 10.0 mi East 5.8 mph - 0.00 in   Overcast
7:55 PM 43.0 °F 38.8 °F 41.0 °F 93% 30.12 in 10.0 mi East 6.9 mph - 0.00 in   Overcast
8:11 PM 42.8 °F 39.3 °F 39.2 °F 87% 30.12 in 10.0 mi East 5.8 mph - N/A   Overcast
8:27 PM 42.8 °F 39.3 °F 39.2 °F 87% 30.12 in 10.0 mi East 5.8 mph - N/A   Overcast
8:55 PM 43.0 °F 39.5 °F 39.9 °F 89% 30.12 in 10.0 mi East 5.8 mph - N/A   Overcast
9:55 PM 42.1 °F 37.7 °F 39.0 °F 89% 30.12 in 10.0 mi East 6.9 mph - N/A   Overcast
10:02 PM 42.8 °F 38.6 °F 39.2 °F 87% 30.11 in 10.0 mi East 6.9 mph - N/A   Overcast
10:47 PM 42.8 °F 38.6 °F 39.2 °F 87% 30.12 in 10.0 mi East 6.9 mph - N/A   Overcast
10:55 PM 42.1 °F 38.4 °F 39.0 °F 89% 30.12 in 10.0 mi East 5.8 mph - N/A   Overcast
11:55 PM 43.0 °F 41.3 °F 39.0 °F 86% 30.12 in 10.0 mi East 3.5 mph - 0.00 in Rain Light Rain